GW3530 Weather Reports


time (UTC)temp
F
wind
direction
speed
knots
gust
knots
rain 1hr
in
rain 24hr
in
rain mn
in
humidity
%
barometer
mb
20260507204537 62 305 6.1 11.3 0.01 0.01 0.01 46 1007.4
20260507203043 63 329 16.5 53.0 0.00 0.00 0.00 46 1007.8
20260507201542 66 342 7.0 11.3 0.00 0.00 0.00 34 1007.2
20260507200046 66 313 6.1 9.6 0.00 0.00 0.00 34 1007.2
20260507194529 67 313 7.8 14.8 0.00 0.00 0.00 32 1007.2
20260507193043 68 355 11.3 16.5 0.00 0.00 0.00 31 1007.1
20260507191534 67 316 10.4 15.6 0.00 0.00 0.00 32 1007.1
20260507190039 67 322 8.7 16.5 0.00 0.00 0.00 31 1007.2
20260507184541 67 325 7.0 17.4 0.00 0.00 0.00 31 1007.1
20260507183046 69 331 13.0 20.9 0.00 0.00 0.00 29 1007.3
20260507181549 70 325 13.9 20.0 0.00 0.00 0.00 31 1007.5
20260507180054 66 333 12.2 16.5 0.00 0.00 0.00 36 1007.7
20260507174602 68 348 11.3 18.2 0.00 0.00 0.00 34 1007.8
20260507173012 67 328 13.0 17.4 0.00 0.00 0.00 35 1008.0
20260507171509 68 317 11.3 20.9 0.00 0.00 0.00 35 1008.0
20260507170012 67 355 13.0 20.9 0.00 0.00 0.00 36 1008.1
20260507164516 66 315 11.3 16.5 0.00 0.00 0.00 37 1008.1
20260507163020 65 269 5.2 10.4 0.00 0.00 0.00 39 1008.2
20260507161609 61 234 3.5 7.0 0.00 0.00 0.00 42 1008.3
20260507160107 59 220 6.1 8.7 0.00 0.00 0.00 45 1008.5
20260507154557 56 222 4.3 8.7 0.00 0.00 0.00 50 1008.5
20260507153008 52 207 5.2 7.8 0.00 0.00 0.00 52 1008.7
20260507151512 52 183 6.1 7.8 0.00 0.00 0.00 50 1008.9
20260507150015 52 180 4.3 5.2 0.00 0.00 0.00 50 1008.9
20260507144522 50 5 0.9 5.2 0.00 0.00 0.00 51 1009.0
20260507143018 49 18 3.5 7.8 0.00 0.00 0.00 50 1008.8
20260507141524 49 36 8.7 11.3 0.00 0.00 0.00 49 1009.0
20260507140031 50 338 7.8 10.4 0.00 0.00 0.00 51 1008.7
20260507134528 49 13 7.8 11.3 0.00 0.00 0.00 53 1008.7
20260507133026 47 290 7.8 9.6 0.00 0.00 0.00 54 1008.4
20260507131529 44 311 6.1 7.8 0.00 0.00 0.00 54 1008.4
20260507130053 44 20 3.5 9.6 0.00 0.00 0.00 56 1008.5
20260507124535 43 300 8.7 11.3 0.00 0.00 0.00 55 1008.4
20260507123043 43 297 7.8 10.4 0.00 0.00 0.00 54 1008.1
20260507121556 43 294 7.8 11.3 0.00 0.00 0.00 55 1008.0
20260507120045 42 311 7.0 10.4 0.00 0.00 0.00 57 1007.9
20260507114554 41 310 7.8 9.6 0.00 0.00 0.00 57 1007.9
20260507113049 41 306 7.0 10.4 0.00 0.00 0.00 55 1007.7
20260507111540 42 283 6.1 10.4 0.00 0.00 0.00 54 1007.6
20260507110044 43 299 7.0 8.7 0.00 0.00 0.00 53 1007.6
20260507104548 43 284 7.0 9.6 0.00 0.00 0.00 55 1007.6
20260507103052 43 241 6.1 8.7 0.00 0.00 0.00 54 1007.8
20260507101558 43 244 6.1 13.0 0.00 0.00 0.00 56 1007.6
20260507094504 42 355 3.5 7.0 0.00 0.00 0.00 58 1007.2
20260507093010 42 15 7.0 9.6 0.00 0.00 0.00 60 1007.3
20260507091512 43 14 7.8 9.6 0.00 0.00 0.00 58 1007.2
20260507090018 43 15 7.8 10.4 0.00 0.00 0.00 57 1007.0
20260507084518 43 19 7.0 9.6 0.00 0.00 0.00 58 1006.8
20260507083018 44 9 5.2 9.6 0.00 0.00 0.00 56 1006.8
20260507081521 44 37 6.1 8.7 0.00 0.00 0.00 54 1006.8
20260507080059 43 34 7.0 9.6 0.00 0.00 0.00 56 1006.8
20260507080002 43 39 7.0 8.7 0.00 0.00 0.00 56 1006.8
20260507074507 43 24 5.2 7.0 0.00 0.00 0.00 57 1006.7
20260507073010 45 35 4.3 5.2 0.00 0.00 0.00 56 1006.6
20260507071513 46 80 2.6 4.3 0.00 0.00 0.00 56 1006.5
20260507070014 47 84 4.3 7.8 0.00 0.00 0.00 56 1006.5
20260507064524 49 42 7.0 11.3 0.00 0.00 0.00 54 1006.5
20260507063022 51 46 9.6 16.5 0.00 0.00 0.00 54 1006.3
20260507061520 53 43 10.4 15.6 0.00 0.00 0.00 48 1006.7
20260507060022 55 82 5.2 12.2 0.00 0.00 0.00 43 1006.7
20260507054525 55 92 11.3 13.9 0.00 0.00 0.00 34 1006.0
20260507053022 54 82 9.6 12.2 0.00 0.00 0.00 35 1006.0
20260507051528 53 78 4.3 7.8 0.00 0.00 0.00 35 1006.1
20260507050039 53 81 7.0 11.3 0.00 0.00 0.00 35 1005.9
20260507044540 52 73 6.1 7.8 0.00 0.00 0.00 35 1006.0
20260507043041 53 69 5.2 7.8 0.00 0.00 0.00 35 1006.0
20260507041546 54 67 0.9 5.2 0.00 0.00 0.00 32 1006.2
20260507040046 54 107 5.2 7.0 0.00 0.00 0.00 33 1006.4
20260507034548 53 306 0.9 2.6 0.00 0.00 0.00 32 1006.7
20260507033052 53 94 0.9 5.2 0.00 0.00 0.00 32 1006.2
20260507031538 55 70 4.3 7.0 0.00 0.00 0.00 33 1005.8
20260507030046 56 86 7.0 8.7 0.00 0.00 0.00 31 1005.7
20260507024530 56 86 7.8 8.7 0.00 0.00 0.00 29 1005.6
20260507023030 58 92 3.5 8.7 0.00 0.00 0.00 29 1005.7
20260507021533 60 107 5.2 7.0 0.00 0.00 0.00 29 1005.5
20260507020045 62 100 1.7 6.1 0.00 0.00 0.00 27 1005.7
20260507014553 63 97 5.2 7.0 0.00 0.00 0.00 25 1005.7
20260507013054 65 84 6.1 7.8 0.00 0.00 0.00 23 1005.9
20260507011546 67 65 3.5 7.8 0.00 0.00 0.00 23 1006.1
20260507010050 71 60 2.6 9.6 0.00 0.00 0.00 22 1006.1
20260507004557 72 35 6.1 11.3 0.00 0.00 0.00 21 1006.2
20260507003005 72 280 1.7 3.5 0.00 0.00 0.00 20 1006.3
20260507001510 70 284 1.7 7.0 0.00 0.00 0.00 21 1006.4
20260507000014 69 232 4.3 13.0 0.00 0.00 0.00 21 1006.4
20260506234516 69 308 5.2 11.3 0.00 0.00 0.00 21 1006.5
20260506233016 70 236 6.1 11.3 0.00 0.00 0.00 20 1006.7
20260506231530 71 321 7.0 10.4 0.00 0.00 0.00 20 1007.1
20260506230004 72 277 6.1 15.6 0.00 0.00 0.00 19 1007.2
20260506224508 72 350 7.8 11.3 0.00 0.00 0.00 20 1007.6
20260506223009 71 326 5.2 13.0 0.00 0.00 0.00 20 1007.9
20260506221511 70 271 5.2 11.3 0.00 0.00 0.00 19 1008.3
20260506220012 69 302 7.8 17.4 0.00 0.00 0.00 19 1008.7
20260506214514 69 289 5.2 14.8 0.00 0.00 0.00 19 1008.8
20260506213016 68 40 0.9 13.9 0.00 0.00 0.00 21 1009.1
20260506211517 68 331 9.6 16.5 0.00 0.00 0.00 20 1009.5
20260506210025 67 300 3.5 13.9 0.00 0.00 0.00 20 1009.7